Weather History for Garrison, ND

Change the Weather History Date:

Wednesday, April 17, 2013

  Actual Average Record
Temperature  
Mean Temperature 25 °F -  
Max Temperature 30 °F 53 °F 75 °F (2005)
Min Temperature 20 °F 28 °F 15 °F (2001)
Degree Days  
Heating Degree Days 40    
Month to date heating degree days 622  
Moisture  
Dew Point 22 °F    
Average Humidity 86    
Maximum Humidity 100    
Minimum Humidity 72    
Precipitation  
Precipitation 0.01 in - - ()
Month to date precipitation 1.60  
Year to date precipitation 3.67  
Sea Level Pressure  
Sea Level Pressure 30.36 in    
Wind  
Wind Speed 7 mph (NNW)    
Max Wind Speed 18 mph    
Max Gust Speed 22 mph    
Averages and records for this station are not official NWS values.
T = Trace of Precipitation, MM = Missing Value Source: NWS Daily Summary

Daily Weather History Graph

Daily Weather History Graph

Search for Another Location

Airport:

Trip Planner

Search our weather history database for the weather conditions in past years. The results will help you decide how hot, cold, wet, or windy it might be!

Date:

Astronomy

Apr. 17, 2013 Rise Set
Actual Time 6:52 AM CDT 8:38 PM CDT
Civil Twilight 6:19 AM CDT 9:11 PM CDT
Nautical Twilight 5:40 AM CDT 9:51 PM CDT
Astronomical Twilight 4:56 AM CDT 10:35 PM CDT
Moon 12:00 PM CDT (4/17) 2:26 AM CDT (4/17)
Length of Visible Light 14h 51m
Length of Day
13h 46m
Waxing Crescent, 42% of the Moon is Illuminated
Apr 17
Waxing Crescent
Apr 18
First Quarter
Apr 25
Full
May 2
Last Quarter
May 9
New

Hourly Weather History & Observations

Time (CDT) Temp. Windchill Dew Point Humidity Pressure Visibility Wind Dir Wind Speed Gust Speed Precip Events Conditions
12:52 AM 27.0 °F 23.0 °F 21.0 °F 78% 30.42 in - ESE 3.5 mph - N/A   Unknown
1:52 AM 25.0 °F 20.7 °F 21.9 °F 88% 30.43 in - SE 3.5 mph - N/A   Unknown
2:52 AM 26.1 °F - 23.0 °F 88% 30.43 in - Calm Calm - N/A   Unknown
3:52 AM 24.1 °F - 21.9 °F 91% 30.40 in - Calm Calm - 0.01 in   Unknown
4:52 AM 24.1 °F - 21.9 °F 91% 30.40 in - Calm Calm - N/A   Unknown
5:52 AM 21.9 °F - 19.0 °F 89% 30.39 in - Calm Calm - N/A   Unknown
6:52 AM 21.0 °F 16.2 °F 19.9 °F 96% 30.37 in - North 3.5 mph - N/A   Unknown
7:52 AM 21.9 °F 14.5 °F 21.0 °F 96% 30.39 in - NW 5.8 mph - N/A   Unknown
8:52 AM 26.1 °F 18.4 °F 23.0 °F 88% 30.37 in - North 6.9 mph - N/A   Unknown
9:52 AM 26.1 °F 19.4 °F 23.0 °F 88% 30.38 in - NNW 5.8 mph - N/A   Unknown
10:52 AM 27.0 °F 20.5 °F 23.0 °F 85% 30.38 in - North 5.8 mph - N/A   Unknown
11:52 AM 28.0 °F 21.7 °F 23.0 °F 81% 30.38 in - NNW 5.8 mph - N/A   Unknown
12:52 PM 30.0 °F 21.7 °F 23.0 °F 75% 30.36 in - NNW 9.2 mph - N/A   Unknown
1:52 PM 28.9 °F 18.2 °F 21.9 °F 75% 30.34 in - NNW 13.8 mph - N/A   Unknown
2:52 PM 28.0 °F 17.0 °F 21.9 °F 78% 30.33 in - NNW 13.8 mph - N/A   Unknown
3:52 PM 27.0 °F 15.6 °F 21.9 °F 81% 30.32 in - NNW 13.8 mph - N/A   Unknown
4:52 PM 27.0 °F 14.3 °F 21.9 °F 81% 30.30 in - North 17.3 mph - N/A   Unknown
5:52 PM 28.0 °F 16.5 °F 23.0 °F 81% 30.32 in - NNW 15.0 mph - N/A   Unknown
6:52 PM 28.0 °F 18.1 °F 23.0 °F 81% 30.32 in - North 11.5 mph - N/A   Unknown
7:52 PM 28.0 °F 17.5 °F 21.0 °F 75% 30.32 in - North 12.7 mph - N/A   Unknown
8:52 PM 27.0 °F 18.7 °F 21.0 °F 78% 30.33 in - NNW 8.1 mph - N/A   Unknown
9:52 PM 25.0 °F 17.1 °F 19.9 °F 81% 30.32 in - NW 6.9 mph - N/A   Unknown
10:52 PM 24.1 °F 16.0 °F 19.9 °F 84% 30.32 in - NW 6.9 mph - N/A   Unknown
11:52 PM 24.1 °F 13.7 °F 19.9 °F 84% 30.30 in - NW 10.4 mph - N/A   Unknown